Flag for Chile Weather past 2 weeks in Iquique, Chile

Now
66 °F

Overcast.


Feels Like: 66 °F
Forecast: 65 / 74 °F
Wind: 5 mph from Northeast

Location: Iquique / Diego Arac

Current Time: May 22, 2015 at 8:41:36 AM

Latest Report: May 22, 2015 at 8:00 AM


Visibility: N/A

Pressure: 30.04 "Hg

Humidity: 64%

Dew point: 54 °F

Location of IquiqueLocation

Historic Weather in Iquique — Graph

°F

Iquique temperature yesterday

Maximum temperature yesterday: 70 °F (at 4:00 PM)
Minimum temperature yesterday: 66 °F (at 12:00 AM)
Average temperature yesterday: 67 °F

Past Weeks' High & Low Weather Summary

 TemperatureHumidityPressure
High73 °F (May 7, 1:00 PM)83% (May 8, 8:00 AM)30.07 "Hg (May 8, 8:00 AM)
Low61 °F (May 8, 7:00 AM)53% (May 13, 2:00 PM)29.86 "Hg (May 7, 5:00 PM)
Average67 °F67%29.96 "Hg
* Reported May 7 7:00 AM — May 22 7:00 AM, Iquique, Weather by CustomWeather, © 2015

Note: Actual official high and low records may vary slightly from our data, if they occured in-between our weather recording intervals... More about our weather records

Advertising

Iquique weather history for previous 24 hours

 ConditionsComfort  
Time TempWeatherWind HumidityBarometerVisibility
7:00 AM
Fri, May 22
66 °FOvercast.8 mph64%30.04 "HgN/A
6:00 AM66 °FOvercast.7 mph64%30.04 "HgN/A
5:00 AM66 °FOvercast.6 mph64%30.04 "HgN/A
4:00 AM68 °FOvercast.6 mph60%30.04 "HgN/A
3:00 AM68 °FOvercast.6 mph60%30.04 "HgN/A
2:00 AM68 °FOvercast.No wind60%30.04 "HgN/A
1:00 AM66 °FOvercast.5 mph68%30.04 "HgN/A
12:00 AM66 °FOvercast.3 mph68%30.04 "HgN/A
11:00 PM
Thu, May 21
68 °FOvercast.6 mph64%30.04 "HgN/A
10:00 PM68 °FOvercast.9 mph64%30.04 "HgN/A
9:00 PM68 °FOvercast.9 mph69%30.04 "HgN/A
8:00 PM68 °FOvercast.10 mph69%30.01 "HgN/A
7:00 PM68 °FOvercast.15 mph69%30.01 "HgN/A
6:00 PM68 °FPartly sunny.16 mph69%29.98 "HgN/A
5:00 PM70 °FPassing clouds.12 mph64%29.95 "HgN/A
4:00 PM70 °FPartly sunny.8 mph60%29.98 "HgN/A
3:00 PM68 °FOvercast.6 mph64%30.01 "HgN/A
2:00 PM68 °FPartly sunny.9 mph64%30.04 "HgN/A
1:00 PM68 °FPassing clouds.8 mph64%30.04 "HgN/A
12:00 PM68 °FScattered clouds.9 mph60%30.04 "HgN/A
11:00 AM68 °FOvercast.3 mph60%30.04 "Hg6 mi
10:00 AM66 °FOvercast.2 mph64%30.04 "Hg6 mi
9:00 AM66 °FOvercast.6 mph64%30.04 "Hg5 mi
8:00 AM66 °FOvercast.6 mph64%30.01 "Hg5 mi
Weather by CustomWeather, © 2015

See weather overviewHow to use our weather pages